Regional Weather Roundup
Issued by NWS

Home | Current Version | Previous Version | Graphics & Text | Print | Product List | Glossary Off
Versions: 1 2 3 4 5 6 7 8 9 10 11 12 13 14 15 16 17 18 19 20 21 22 23 24 25 26 27 28 29 30 31 32 33 34 35 36 37 38 39 40 41 42 43 44 45 46 47 48 49 50

000
ASUS43 KDMX 250207
RWRIA

WEATHER ROUNDUP FOR IOWA
NATIONAL WEATHER SERVICE DES MOINES IA
800 PM CST WED DEC 24 2014

NOTE: "FAIR" INDICATES FEW OR NO CLOUDS BELOW 12,000 FEET WITH NO
SIGNIFICANT WEATHER AND/OR OBSTRUCTIONS TO VISIBILITY.

* - THESE STATIONS ARE NOT NWS STATIONS...THUS NOT UNDER NWS
QUALITY CONTROL.  THEY ALSO DO NOT REPORT WEATHER SUCH
AS PRECIPITATION OR FOG.

IAZ001>003-012>014-020>022-031>034-043>046-250300-
   NORTHWEST IOWA

CITY           SKY/WX    TMP DP  RH WIND       PRES   REMARKS
CARROLL *      CLOUDY    28  28 100 SW15      29.71F FOG     WCI  17
CHEROKEE *     CLOUDY    27  27 100 SW9       29.69S FOG     WCI  17
DENISON *      CLOUDY    28  28 100 SW15      29.69F WCI  17
LE MARS *      CLOUDY    28  27  93 SW12G17   29.68F WCI  18
ORANGE CITY *  CLOUDY    27  25  93 SW10      29.65F WCI  17
SHELDON *      CLOUDY    27  27 100 SW10      29.65S WCI  17
SIOUX CITY     MOCLDY    28  25  88 S7        29.70F WCI  21
SPENCER        CLOUDY    27  25  92 SW12      29.66F FOG     WCI  17
STORM LAKE *   CLOUDY    27  27 100 SW15      29.68F FOG     WCI  15
$$

IAZ055>058-069>071-079>083-090>094-250300-
   SOUTHWEST IOWA

CITY           SKY/WX    TMP DP  RH WIND       PRES   REMARKS
ATLANTIC *     CLOUDY    30  28  93 SW13      29.74S WCI  20
AUDUBON *      MOCLDY    28  25  86 SW12      29.73F WCI  18
CLARINDA *     CLOUDY    32  28  86 SW8       29.80S WCI  25
COUNCIL BLFS * CLOUDY    28  30 100 S8        29.71F WCI  20
CRESTON *      CLOUDY    30  30 100 W14G20    29.75S WCI  20
HARLAN  *      CLOUDY    30  30 100 SW8       29.76F WCI  23
LAMONI         CLOUDY    31  28  89 W14       29.77S WCI  21
RED OAK *      CLOUDY    30  28  93 SW14      29.76S WCI  20
SHENANDOAH *   CLOUDY    32  30  93 SW9       29.78F WCI  24
$$

IAZ047>049-059>061-072>074-084-250300-
   CENTRAL IOWA

CITY           SKY/WX    TMP DP  RH WIND       PRES   REMARKS
AMES           CLOUDY    31  27  85 W16       29.72F WCI  20
ANKENY *       CLOUDY    32  30  93 W9        29.74S WCI  24
CHARITON *     CLOUDY    32  30  93 W12       29.75F WCI  23
DES MOINES     FLURRIES  33  28  81 W15       29.74F WCI  23
GRINNELL*      CLOUDY    32  30  93 W13       29.72S WCI  22
KNOXVILLE *    CLOUDY    32  28  86 W12       29.73F WCI  23
MARSHALLTOWN   CLOUDY    32  29  88 W12       29.69F WCI  23
PELLA *        CLOUDY    34  30  86 W7        29.75F FOG     WCI  28
PERRY *        CLOUDY    32  30  93 W10       29.73F WCI  24
$$

IAZ004>006-015-016-023>025-035-036-250300-
   NORTH CENTRAL IOWA

CITY           SKY/WX    TMP DP  RH WIND       PRES   REMARKS
ALGONA *       CLOUDY    30  30 100 SW14      29.67F WCI  20
CLARION *      CLOUDY    30  30 100 W13       29.68F WCI  20
ESTHERVILLE    CLOUDY    27  26  96 SW14      29.65S WCI  16
FORT DODGE *   CLOUDY    28  25  86 W9        29.69F WCI  20
MASON CITY     CLOUDY    31  29  92 W9        29.66F WCI  23
FOREST CITY *  CLOUDY    32  28  86 W5        29.65F WCI  27
IOWA FALLS *   CLOUDY    32  28  86 W10       29.69F WCI  24
$$

IAZ007>011-017>019-026>030-037>042-050>054-066-250300-
   NORTHEAST IOWA

CITY           SKY/WX    TMP DP  RH WIND       PRES   REMARKS
CEDAR RAPIDS   CLOUDY    32  30  92 W13       29.69R WCI  22
CHARLES CITY * CLOUDY    32  32 100 W9        29.66S WCI  24
CLINTON *      CLOUDY    36  30  80 W12       29.68R WCI  27
DECORAH *      CLOUDY    34  30  86 W5        29.62S WCI  30
DUBUQUE        CLOUDY    34  31  88 W10       29.63R WCI  26
MONTICELLO *   CLOUDY    36  34  93 W13       29.66R WCI  27
OELWEIN *      CLOUDY    34  30  86 W14       29.66S WCI  24
WATERLOO       CLOUDY    33  29  85 W8        29.68R WCI  26
$$

IAZ064-065-067-068-078-250300-
   EAST CENTRAL IOWA

CITY           SKY/WX    TMP DP  RH WIND       PRES   REMARKS
DAVENPORT      CLOUDY    35  30  82 W15       29.68R WCI  25
IOWA CITY      CLOUDY    35  30  82 W12       29.72R WCI  27
MT. PLEASANT * CLOUDY    34  30  86 W9G16     29.73S WCI  26
MUSCATINE *    CLOUDY    36  32  87 W14G20    29.72R WCI  27
QUAD CITIES    CLOUDY    37  30  75 W13G22    29.68R WCI  29
$$

IAZ062-063-075>077-085>089-095>099-250300-
   SOUTHEAST IOWA

CITY           SKY/WX    TMP DP  RH WIND       PRES   REMARKS
BURLINGTON     CLOUDY    37  30  75 NW13G18   29.73R WCI  29
FAIRFIELD *    CLOUDY    36  30  80 W13       29.74S WCI  27
FORT MADISON * CLOUDY    37  32  81 NW16      29.75R WCI  28
KEOKUK *       CLOUDY    36  32  87 W9        29.75R WCI  29
OSKALOOSA *    CLOUDY    34  30  86 W10       29.75R WCI  26
CENTERVILLE *  MIX PCPN  32  32 100 W10       29.77F WCI  24
OTTUMWA        CLOUDY    34  29  82 W12       29.75R WCI  25
WASHINGTON *   CLOUDY    36  36 100 W14G20    29.72S WCI  27
$$

ABBREVIATIONS USED IN REMARKS
   TC - TEMPERATURES IN CELSIUS
  WCI - WIND CHILL INDEX
   HX - HEAT INDEX
  VSB - VISIBILITY
$$



USA.gov is the U.S. government's official web portal to all federal, state and local government web resources and services.